This is the latest recevied weather packets stored in our database for station/object K8GLX. If no packets are shown the sender has not sent any weather packets the latest 10 day(s).
| Time | Temp. | Humidity | Pressure | Rain* | Wind** | Luminosity | Snow |
|---|---|---|---|---|---|---|---|
| 1777937534 | 22.78° C | 52% | 1002.3 hPa | 0 mm | - | 49 W/m² | - |
| 1777937229 | 22.78° C | 53% | 1002.2 hPa | 0 mm | - | 51 W/m² | - |
| 1777936934 | 22.22° C | 53% | 1001.9 hPa | 0 mm | - | 61 W/m² | - |
| 1777936631 | 22.22° C | 54% | 1002.2 hPa | 0 mm | - | 85 W/m² | - |
| 1777936462 | 22.22° C | 55% | 1002.2 hPa | 0 mm | - | 94 W/m² | - |
| 1777936029 | 21.67° C | 55% | 1002.4 hPa | 0 mm | - | 92 W/m² | - |
| 1777935862 | 21.67° C | 56% | 1002.6 hPa | 0 mm | - | 59 W/m² | - |
| 1777935429 | 21.67° C | 56% | 1002.4 hPa | 0 mm | - | 40 W/m² | - |
| 1777935135 | 21.67° C | 55% | 1002.4 hPa | 0 mm | - | 35 W/m² | - |
| 1777934829 | 21.67° C | 54% | 1002.4 hPa | 0 mm | - | 42 W/m² | - |
| 1777934535 | 21.67° C | 54% | 1002.5 hPa | 0 mm | - | 90 W/m² | - |
| 1777934229 | 22.22° C | 53% | 1002.6 hPa | 0 mm | - | 169 W/m² | - |
| 1777933934 | 21.67° C | 52% | 1002.9 hPa | 0 mm | - | 214 W/m² | - |
| 1777933628 | 22.78° C | 50% | 1002.9 hPa | 0 mm | - | 77 W/m² | - |
| 1777933335 | 22.78° C | 48% | 1002.8 hPa | 0 mm | - | 161 W/m² | - |
| 1777933029 | 22.78° C | 49% | 1003 hPa | 0 mm | - | 204 W/m² | - |
| 1777932734 | 22.78° C | 48% | 1003.1 hPa | 0 mm | - | 95 W/m² | - |
| 1777932429 | 22.78° C | 48% | 1002.9 hPa | 0 mm | - | 112 W/m² | - |
| 1777932135 | 22.78° C | 48% | 1003 hPa | 0 mm | - | 95 W/m² | - |
| 1777931829 | 22.78° C | 47% | 1003 hPa | 0 mm | - | 107 W/m² | - |
| 1777931534 | 23.33° C | 47% | 1003 hPa | 0 mm | - | 112 W/m² | - |
| 1777931229 | 23.33° C | 46% | 1002.9 hPa | 0 mm | - | 131 W/m² | - |
| 1777931062 | 23.33° C | 45% | 1003 hPa | 0 mm | - | 180 W/m² | - |
| 1777930629 | 23.33° C | 44% | 1002.8 hPa | 0 mm | - | 137 W/m² | - |
| 1777930462 | 23.89° C | 44% | 1003 hPa | 0 mm | - | 357 W/m² | - |
* Rain latest hour (hover to see other rain measurements)
** Current wind speed in m/s (hover to see current wind gust speed)